Regional Weather Roundup
Issued by NWS Green Bay, WI

Home | Current Version | Previous Version | Text Only | Print | Product List | Glossary On
Versions: 1 2 3 4 5 6 7 8 9 10 11 12 13 14 15 16 17 18 19 20 21 22 23 24 25 26 27 28 29 30 31 32 33 34 35 36 37 38 39 40 41 42 43 44 45 46 47 48 49 50
401
ASUS43 KGRB 250900
RWRGRB

NORTH-CENTRAL AND NORTHEAST WISCONSIN REGIONAL WEATHER ROUNDUP
NATIONAL WEATHER SERVICE GREEN BAY WI
300 AM CST SAT FEB 25 2017

WIZ005-009-010>012-018-019-251000-
NORTH CENTRAL WISCONSIN

CITY           SKY/WX    TMP DP  RH WIND       PRES   REMARKS
IRONWOOD       FLURRIES  16  10  77 NW13      29.68F WCI   2
MANITOWISH WTR NOT AVBL
ARBOR VITAE    NOT AVBL
EAGLE RIVER    NOT AVBL
LAND O LAKES   NOT AVBL
RHINELANDER    LGT SNOW  16  11  80 NW10      29.58F WCI   4
PHILLIPS       NOT AVBL
ANTIGO         NOT AVBL
TOMAHAWK       NOT AVBL
MERRILL        NOT AVBL
$$

WIZ013-073-251000-
NORTHEAST WISCONSIN

CITY           SKY/WX    TMP DP  RH WIND       PRES   REMARKS
IRON MOUNTAIN  LGT SNOW  18  12  77 NW16G24   29.51F WCI   3
MARINETTE      CLOUDY    21  17  84 NW13G21   29.54S WCI   9
$$

WIZ017-030-035>037-045-251000-
CENTRAL WISCONSIN

CITY           SKY/WX    TMP DP  RH WIND       PRES   REMARKS
MEDFORD        NOT AVBL
WAUSAU         LGT SNOW  17  11  77 NW12      29.62S WCI   4
MOSINEE        NOT AVBL
MARSHFIELD     LGT SNOW  16  10  77 NW22G29   29.66S WCI  -2
WISC RAPIDS    LGT SNOW  17  14  88 NW17G23   29.68S FOG     WCI   1
STEVENS POINT  NOT AVBL
WAUPACA        NOT AVBL
SHAWANO        LGT SNOW  22  17  83 CALM      29.60R
CLINTONVILLE   NOT AVBL
WAUTOMA        LGT SNOW  18  16  92 NW13      29.66R FOG     WCI   5
$$

WIZ038-039-048-051-251000-
FOX VALLEY

CITY           SKY/WX    TMP DP  RH WIND       PRES   REMARKS
NWS GREEN BAY  LGT SNOW  22  19  89 NW15      29.57S FOG     WCI   9
APPLETON       NOT AVBL
OSHKOSH        LGT SNOW  20  16  84 NW12      29.59S FOG     WCI   8
FOND DU LAC    LGT SNOW  21  16  81 NW12      29.60S WCI   9
$$

WIZ022-050-052-251000-
EAST CENTRAL WISCONSIN

CITY           SKY/WX    TMP DP  RH WIND       PRES   REMARKS
EPHRAIM        NOT AVBL
WASHINGTON ISL NOT AVBL
STURGEON BAY   FLURRIES  22  18  85 NW17G23   29.53S WCI   8
MANITOWOC      NOT AVBL
SHEBOYGAN      LGT SNOW  22  17  81 NW14G20   29.57R WCI   9
$$

LMZ563-521-522-541>543-251000-
LAKESHORE

STATION/POSITION TIME  TEMP    WIND        PRES    VSBY  WAVE
                       AIR SEA DIR/SP/G                  HT/PER
                 (UTC) (F)     (DEG/KT/KT) (MB)    (MI)  (FT/S)
SHEBOYGAN LKSHOR 0800   23     320/  6/  6 1001.6F
KEWAUNEE LKSHORE 0830   22     320/ 10/ 16  999.9R
NORTHPORT PIER   0840   26     330/  3/  3  998.6F
SISTER BAY LKSHO 0805   24        CALM       N/A
CHAMBERS ISLAND  0840   23     300/  3/  4  999.3S
MENOMINEE LKSHOR 0830   22     300/  9/ 15  999.5F
$$




USA.gov is the U.S. government's official web portal to all federal, state and local government web resources and services.